Weather History for Pawtucket, RI

Change the Weather History Date:

Saturday, January 25, 2014

  Actual Average Record
Temperature  
Mean Temperature 22 °F -  
Max Temperature 35 °F 31 °F 51 °F (1997)
Min Temperature 10 °F 16 °F -5 °F (2004)
Degree Days  
Heating Degree Days 42    
Moisture  
Dew Point 15 °F    
Average Humidity 64    
Maximum Humidity 86    
Minimum Humidity 52    
Precipitation  
Precipitation 0.00 in - - ()
Sea Level Pressure  
Sea Level Pressure 29.63 in    
Wind  
Wind Speed 8 mph (SW)    
Max Wind Speed 17 mph    
Max Gust Speed 33 mph    
Visibility 9 miles    
Events      
Averages and records for this station are not official NWS values.
T = Trace of Precipitation, MM = Missing Value Source: NWS Daily Summary

Daily Weather History Graph

Daily Weather History Graph

Search for Another Location

Airport:

Trip Planner

Search our weather history database for the weather conditions in past years. The results will help you decide how hot, cold, wet, or windy it might be!

Date:

Astronomy

Jan. 25, 2014 Rise Set
Actual Time 7:04 AM EST 4:52 PM EST
Civil Twilight 6:34 AM EST 5:22 PM EST
Nautical Twilight 6:01 AM EST 5:56 PM EST
Astronomical Twilight 5:28 AM EST 6:29 PM EST
Moon 1:33 AM EST (1/25) 11:50 AM EST (1/25)
Length of Visible Light 10h 47m
Length of Day
9h 47m
Waning Crescent, 34% of the Moon is Illuminated
Jan 25
Waning Crescent
Jan 30
New
Feb 6
First Quarter
Feb 14
Full
Feb 22
Last Quarter

Hourly Weather History & Observations

Time (EST) Temp. Windchill Dew Point Humidity Pressure Visibility Wind Dir Wind Speed Gust Speed Precip Events Conditions
12:15 AM 10.4 °F -0.4 °F -0.4 °F 62% 30.04 in 10.0 mi SW 6.9 mph - N/A   Clear
12:35 AM 12.2 °F 1.7 °F -0.4 °F 57% 30.02 in 10.0 mi SW 6.9 mph - N/A   Clear
12:55 AM 12.2 °F -0.2 °F 1.4 °F 62% 30.01 in 10.0 mi SW 9.2 mph - N/A   Clear
1:15 AM 12.2 °F 2.9 °F 1.4 °F 62% 30.00 in 10.0 mi SW 5.8 mph - N/A   Clear
1:35 AM 14.0 °F 3.9 °F 1.4 °F 57% 29.99 in 10.0 mi SSW 6.9 mph - N/A   Clear
1:55 AM 14.0 °F 5.1 °F 1.4 °F 57% 29.98 in 10.0 mi SSW 5.8 mph - N/A   Clear
2:15 AM 14.0 °F 3.9 °F 1.4 °F 57% 29.97 in 10.0 mi SSW 6.9 mph - N/A   Clear
2:35 AM 14.0 °F 6.5 °F 1.4 °F 57% 29.97 in 10.0 mi SSW 4.6 mph - N/A   Partly Cloudy
2:55 AM 14.0 °F 2.0 °F 1.4 °F 57% 29.97 in 10.0 mi SSW 9.2 mph - N/A   Scattered Clouds
3:15 AM 14.0 °F 5.1 °F 1.4 °F 57% 29.94 in 10.0 mi South 5.8 mph - N/A   Clear
3:35 AM 12.2 °F 4.3 °F 1.4 °F 62% 29.92 in 10.0 mi SSW 4.6 mph - N/A   Clear
3:55 AM 14.0 °F 5.1 °F 3.2 °F 62% 29.91 in 10.0 mi SSW 5.8 mph - N/A   Partly Cloudy
4:15 AM 14.0 °F 8.2 °F 1.4 °F 57% 29.89 in 10.0 mi South 3.5 mph - N/A   Clear
4:35 AM 15.8 °F 7.2 °F 3.2 °F 58% 29.88 in 10.0 mi SSW 5.8 mph - N/A   Clear
4:55 AM 15.8 °F 6.1 °F 6.8 °F 68% 29.87 in 10.0 mi SSW 6.9 mph - N/A   Mostly Cloudy
5:15 AM 17.6 °F 6.4 °F 6.8 °F 63% 29.85 in 10.0 mi South 9.2 mph - N/A   Overcast
5:35 AM 19.4 °F 9.5 °F 8.6 °F 63% 29.84 in 10.0 mi SSW 8.1 mph - N/A   Overcast
5:55 AM 19.4 °F 11.5 °F 10.4 °F 68% 29.84 in 10.0 mi SSW 5.8 mph - N/A   Overcast
6:15 AM 19.4 °F 11.5 °F 10.4 °F 68% 29.84 in 10.0 mi SSW 5.8 mph - N/A   Overcast
6:35 AM 21.2 °F 14.9 °F 12.2 °F 68% 29.84 in 10.0 mi SSW 4.6 mph - N/A   Overcast
6:55 AM 21.2 °F 14.9 °F 12.2 °F 68% 29.82 in 10.0 mi South 4.6 mph - N/A   Overcast
7:15 AM 21.2 °F 13.6 °F 14.0 °F 74% 29.81 in 9.0 mi South 5.8 mph - N/A   Overcast
7:35 AM 23.0 °F 15.8 °F 15.8 °F 74% 29.80 in 10.0 mi SSW 5.8 mph - N/A   Overcast
7:55 AM 24.8 °F 17.9 °F 17.6 °F 74% 29.79 in 10.0 mi SSW 5.8 mph - N/A   Overcast
8:15 AM 26.6 °F 21.2 °F 17.6 °F 69% 29.77 in 10.0 mi South 4.6 mph - N/A   Overcast
8:35 AM 26.6 °F 21.2 °F 19.4 °F 74% 29.76 in 10.0 mi SSW 4.6 mph - N/A   Mostly Cloudy
8:55 AM 28.4 °F 21.2 °F 17.6 °F 64% 29.75 in 10.0 mi SSW 6.9 mph 19.6 mph N/A   Mostly Cloudy
9:15 AM 28.4 °F 21.2 °F 19.4 °F 69% 29.74 in 10.0 mi SSW 6.9 mph 17.3 mph N/A   Mostly Cloudy
9:35 AM 30.2 °F 22.6 °F 19.4 °F 64% 29.73 in 10.0 mi SSW 8.1 mph 17.3 mph N/A   Overcast
9:55 AM 32.0 °F 22.1 °F 21.2 °F 64% 29.72 in 10.0 mi SSW 13.8 mph 23.0 mph N/A   Overcast
10:15 AM 33.8 °F 25.3 °F 21.2 °F 60% 29.71 in 10.0 mi SSW 11.5 mph 23.0 mph N/A   Overcast
10:35 AM 33.8 °F 25.3 °F 21.2 °F 60% 29.69 in 10.0 mi SSW 11.5 mph 29.9 mph N/A   Overcast
10:55 AM 33.8 °F 23.5 °F 21.2 °F 60% 29.68 in 10.0 mi SSW 16.1 mph 24.2 mph N/A   Overcast
11:15 AM 33.8 °F 25.3 °F 21.2 °F 60% 29.66 in 10.0 mi SSW 11.5 mph 28.8 mph N/A   Overcast
11:35 AM 35.6 °F 26.6 °F 21.2 °F 56% 29.63 in 10.0 mi SSW 13.8 mph 23.0 mph N/A   Overcast
11:55 AM 35.6 °F 26.2 °F 21.2 °F 56% 29.62 in 10.0 mi SSW 15.0 mph 26.5 mph N/A   Overcast
12:15 PM 35.6 °F 26.2 °F 21.2 °F 56% 29.59 in 10.0 mi SSW 15.0 mph 24.2 mph N/A   Overcast
12:35 PM 35.6 °F 25.9 °F 21.2 °F 56% 29.57 in 10.0 mi SSW 16.1 mph 28.8 mph N/A   Overcast
12:55 PM 35.6 °F 28.0 °F 21.2 °F 56% 29.56 in 10.0 mi SSW 10.4 mph 27.6 mph N/A   Overcast
1:15 PM 35.6 °F 27.1 °F 21.2 °F 56% 29.54 in 10.0 mi SSW 12.7 mph 31.1 mph N/A   Overcast
1:35 PM 35.6 °F 25.5 °F 21.2 °F 56% 29.52 in 10.0 mi SSW 17.3 mph 33.4 mph N/A   Mostly Cloudy
1:55 PM 35.6 °F 27.1 °F 21.2 °F 56% 29.51 in 10.0 mi SSW 12.7 mph 24.2 mph N/A   Overcast
2:15 PM 35.6 °F 28.6 °F 21.2 °F 56% 29.50 in 10.0 mi SSW 9.2 mph 26.5 mph N/A   Overcast
2:35 PM 35.6 °F 26.2 °F 21.2 °F 56% 29.49 in 10.0 mi SW 15.0 mph 26.5 mph N/A   Overcast
2:55 PM 35.6 °F 26.6 °F 21.2 °F 56% 29.48 in 10.0 mi SSW 13.8 mph 25.3 mph N/A   Overcast
3:15 PM 35.6 °F 28.6 °F 21.2 °F 56% 29.47 in 10.0 mi SSW 9.2 mph 24.2 mph N/A   Overcast
3:35 PM 35.6 °F 28.0 °F 21.2 °F 56% 29.46 in 10.0 mi SSW 10.4 mph 21.9 mph N/A   Overcast
3:55 PM 35.6 °F 28.0 °F 19.4 °F 52% 29.44 in 10.0 mi SSW 10.4 mph 29.9 mph N/A   Scattered Clouds
4:15 PM 33.8 °F 24.8 °F 19.4 °F 56% 29.43 in 10.0 mi SSW 12.7 mph 18.4 mph N/A   Scattered Clouds
4:35 PM 33.8 °F 25.3 °F 19.4 °F 56% 29.42 in 10.0 mi SSW 11.5 mph 20.7 mph N/A   Scattered Clouds
4:55 PM 33.8 °F 26.4 °F 19.4 °F 56% 29.41 in 10.0 mi SSW 9.2 mph - N/A   Mostly Cloudy
5:15 PM 33.8 °F 27.0 °F 19.4 °F 56% 29.40 in 10.0 mi SW 8.1 mph 17.3 mph N/A   Overcast
5:35 PM 32.0 °F 22.1 °F 19.4 °F 60% 29.39 in 7.0 mi SSW 13.8 mph 26.5 mph N/A   Overcast
5:55 PM 30.2 °F 22.6 °F 23.0 °F 75% 29.40 in 2.5 mi SSW 8.1 mph 16.1 mph N/A   Overcast
6:15 PM 28.4 °F 22.2 °F 23.0 °F 80% 29.39 in 2.0 mi SW 5.8 mph 18.4 mph N/A   Overcast
6:35 PM 28.4 °F 23.3 °F 23.0 °F 80% 29.39 in 2.5 mi SW 4.6 mph 17.3 mph N/A   Overcast
6:55 PM 28.4 °F 20.4 °F 24.8 °F 86% 29.38 in 3.0 mi SSW 8.1 mph - N/A   Overcast
7:15 PM 28.4 °F 23.3 °F 21.2 °F 74% 29.38 in 5.0 mi SW 4.6 mph - N/A   Overcast
7:35 PM 28.4 °F 19.7 °F 21.2 °F 74% 29.37 in 5.0 mi SW 9.2 mph - N/A   Overcast
7:55 PM 26.6 °F 18.2 °F 21.2 °F 80% 29.37 in 2.5 mi WSW 8.1 mph - N/A   Overcast
8:15 PM 26.6 °F 16.8 °F 21.2 °F 80% 29.37 in 3.0 mi SW 10.4 mph - N/A   Overcast
8:35 PM 26.6 °F 16.2 °F 19.4 °F 74% 29.36 in 10.0 mi WSW 11.5 mph 18.4 mph N/A   Overcast
8:55 PM 26.6 °F 14.7 °F 17.6 °F 69% 29.36 in 10.0 mi West 15.0 mph 23.0 mph N/A   Overcast
9:15 PM 24.8 °F 14.6 °F 17.6 °F 74% 29.36 in 10.0 mi WSW 10.4 mph 20.7 mph N/A   Overcast
9:35 PM 24.8 °F 12.9 °F 15.8 °F 69% 29.35 in 10.0 mi WSW 13.8 mph 21.9 mph N/A   Mostly Cloudy
9:55 PM 24.8 °F 16.1 °F 15.8 °F 69% 29.35 in 10.0 mi WSW 8.1 mph 21.9 mph N/A   Scattered Clouds
10:15 PM 24.8 °F 16.9 °F 15.8 °F 69% 29.36 in 10.0 mi WSW 6.9 mph 18.4 mph N/A   Partly Cloudy
10:35 PM 24.8 °F 14.6 °F 15.8 °F 69% 29.36 in 10.0 mi WSW 10.4 mph 21.9 mph N/A   Mostly Cloudy
10:55 PM 24.8 °F 15.3 °F 15.8 °F 69% 29.36 in 10.0 mi WSW 9.2 mph - N/A   Overcast
11:15 PM 24.8 °F 16.1 °F 14.0 °F 64% 29.36 in 10.0 mi WSW 8.1 mph - N/A   Mostly Cloudy
11:35 PM 23.0 °F 13.1 °F 15.8 °F 74% 29.35 in 10.0 mi WSW 9.2 mph - N/A   Clear
11:55 PM 23.0 °F 13.9 °F 15.8 °F 74% 29.35 in 10.0 mi West 8.1 mph 18.4 mph N/A   Partly Cloudy